When you browse on this site, cookies collect data to enhance your experience and personalize the content and advertising you see.
Visit our Privacy Policy to learn more. By continuing to use the site, you agree to this use of cookies and data.
  • în România
  • Lista ţărilor
  • Pe 7 zile
  • Temperatura apei
  • Hartă satelitară
  • Meteo pe hartă
  • Widget-uri
  • user-avatar
    Intrare

    Meteo pe oră la Trujillo

    Astăzi, 21 Martie, Joi

    Timp Temperatura Precipitaţii Vânt Presiune Umiditate
    00:00 +20°C° 0 mm 1 m/s 647 mmHg 77%
    01:00 +20°C° 0 mm 1 m/s 646 mmHg 76%
    02:00 +20°C° 0 mm 1 m/s 646 mmHg 75%
    03:00 +19°C° 0 mm 1 m/s 646 mmHg 74%
    04:00 +19°C° 0 mm 1 m/s 646 mmHg 73%
    05:00 +20°C° 0.1 mm 1 m/s 647 mmHg 71%
    06:00 +20°C° 0.1 mm 1 m/s 647 mmHg 69%
    07:00 +21°C° 0.1 mm 1 m/s 648 mmHg 67%
    08:00 +23°C° 0 mm 1 m/s 649 mmHg 62%
    09:00 +25°C° 0 mm 1 m/s 650 mmHg 56%
    10:00 +28°C° 0 mm 1 m/s 651 mmHg 50%
    11:00 +27°C° 0.1 mm 1 m/s 650 mmHg 52%
    12:00 +27°C° 0.1 mm 1 m/s 649 mmHg 55%
    13:00 +26°C° 0.1 mm 1 m/s 648 mmHg 57%
    14:00 +26°C° 0.3 mm 1 m/s 647 mmHg 60%
    15:00 +25°C° 0.3 mm 1 m/s 646 mmHg 63%
    16:00 +25°C° 0.3 mm 1 m/s 646 mmHg 65%
    17:00 +24°C° 0.5 mm 1 m/s 646 mmHg 71%
    18:00 +20°C° 0.5 mm 0 m/s 646 mmHg 76%
    19:00 +19°C° 0.5 mm 0 m/s 646 mmHg 82%
    20:00 +19°C° 0.4 mm 0 m/s 646 mmHg 81%
    21:00 +19°C° 0.4 mm 0 m/s 647 mmHg 81%
    22:00 +21°C° 0.4 mm 1 m/s 647 mmHg 81%
    23:00 +18°C° 0.6 mm 0 m/s 647 mmHg 81%

    Mâine, 22 Martie, Vineri

    Timp Temperatura Precipitaţii Vânt Presiune Umiditate
    00:00 +18°C° 0.6 mm 0 m/s 647 mmHg 80%
    01:00 +18°C° 0.6 mm 0 m/s 646 mmHg 80%
    02:00 +18°C° 0.3 mm 0 m/s 646 mmHg 80%
    03:00 +18°C° 0.3 mm 0 m/s 646 mmHg 81%
    04:00 +18°C° 0.3 mm 0 m/s 646 mmHg 81%
    05:00 +18°C° 0.3 mm 0 m/s 647 mmHg 80%
    06:00 +18°C° 0.3 mm 0 m/s 647 mmHg 79%
    07:00 +19°C° 0.3 mm 0 m/s 648 mmHg 79%
    08:00 +20°C° 0.5 mm 0 m/s 649 mmHg 76%
    09:00 +21°C° 0.5 mm 0 m/s 649 mmHg 73%
    10:00 +22°C° 0.5 mm 0 m/s 650 mmHg 70%
    11:00 +22°C° 0.3 mm 0 m/s 649 mmHg 69%
    12:00 +24°C° 0.3 mm 1 m/s 648 mmHg 67%
    13:00 +25°C° 0.3 mm 1 m/s 648 mmHg 66%
    14:00 +25°C° 0.3 mm 1 m/s 647 mmHg 67%
    15:00 +24°C° 0.3 mm 1 m/s 646 mmHg 69%
    16:00 +24°C° 0.3 mm 1 m/s 646 mmHg 70%
    17:00 +23°C° 0.9 mm 1 m/s 646 mmHg 76%
    18:00 +22°C° 0.9 mm 1 m/s 646 mmHg 82%
    19:00 +18°C° 0.9 mm 0 m/s 646 mmHg 88%
    20:00 +18°C° 0.5 mm 0 m/s 647 mmHg 87%
    21:00 +18°C° 0.5 mm 0 m/s 647 mmHg 86%
    22:00 +18°C° 0.5 mm 0 m/s 648 mmHg 85%
    23:00 +18°C° 0.5 mm 0 m/s 647 mmHg 85%

    Poimâine, 23 Martie, Sâmbătă

    Timp Temperatura Precipitaţii Vânt Presiune Umiditate
    00:00 +18°C° 0.5 mm 0 m/s 647 mmHg 85%
    01:00 +18°C° 0.5 mm 0 m/s 647 mmHg 84%
    02:00 +18°C° 0.3 mm 0 m/s 647 mmHg 84%
    03:00 +18°C° 0.3 mm 0 m/s 646 mmHg 84%
    04:00 +18°C° 0.3 mm 0 m/s 646 mmHg 83%
    05:00 +18°C° 0.5 mm 0 m/s 647 mmHg 82%
    06:00 +18°C° 0.5 mm 0 m/s 648 mmHg 81%
    07:00 +18°C° 0.5 mm 0 m/s 648 mmHg 80%
    08:00 +19°C° 0.7 mm 0 m/s 649 mmHg 77%
    09:00 +20°C° 0.7 mm 0 m/s 650 mmHg 75%
    10:00 +21°C° 0.7 mm 0 m/s 650 mmHg 73%
    11:00 +22°C° 0.3 mm 0 m/s 650 mmHg 70%
    12:00 +22°C° 0.3 mm 0 m/s 649 mmHg 66%
    13:00 +23°C° 0.3 mm 0 m/s 649 mmHg 63%
    14:00 +25°C° 0.2 mm 1 m/s 648 mmHg 65%
    15:00 +24°C° 0.2 mm 1 m/s 647 mmHg 67%
    16:00 +24°C° 0.2 mm 1 m/s 647 mmHg 68%
    17:00 +23°C° 0.1 mm 1 m/s 647 mmHg 73%
    18:00 +20°C° 0.1 mm 0 m/s 647 mmHg 78%
    19:00 +19°C° 0.1 mm 0 m/s 647 mmHg 83%
    20:00 +18°C° 0 mm 0 m/s 647 mmHg 82%
    21:00 +18°C° 0 mm 0 m/s 648 mmHg 82%
    22:00 +18°C° 0 mm 0 m/s 648 mmHg 81%
    23:00 +18°C° 0.1 mm 0 m/s 648 mmHg 80%

    24 Martie, Duminică

    Timp Temperatura Precipitaţii Vânt Presiune Umiditate
    00:00 +18°C° 0.1 mm 0 m/s 647 mmHg 80%
    01:00 +18°C° 0.1 mm 0 m/s 647 mmHg 80%
    02:00 +18°C° 0.1 mm 0 m/s 647 mmHg 80%
    03:00 +17°C° 0.1 mm 0 m/s 647 mmHg 80%
    04:00 +17°C° 0.1 mm 0 m/s 647 mmHg 80%
    05:00 +18°C° 0.1 mm 0 m/s 647 mmHg 79%
    06:00 +18°C° 0.1 mm 0 m/s 648 mmHg 77%
    07:00 +19°C° 0.1 mm 0 m/s 649 mmHg 75%
    08:00 +20°C° 0.2 mm 0 m/s 649 mmHg 71%
    09:00 +21°C° 0.2 mm 0 m/s 650 mmHg 67%
    10:00 +23°C° 0.2 mm 0 m/s 650 mmHg 64%
    11:00 +25°C° 0.1 mm 1 m/s 650 mmHg 61%
    12:00 +26°C° 0.1 mm 1 m/s 649 mmHg 59%
    13:00 +26°C° 0.1 mm 1 m/s 648 mmHg 57%
    14:00 +26°C° 0.2 mm 1 m/s 648 mmHg 60%
    15:00 +25°C° 0.2 mm 1 m/s 647 mmHg 63%
    16:00 +25°C° 0.2 mm 1 m/s 646 mmHg 65%
    17:00 +21°C° 0.3 mm 0 m/s 646 mmHg 71%
    18:00 +20°C° 0.3 mm 0 m/s 646 mmHg 77%
    19:00 +19°C° 0.3 mm 0 m/s 646 mmHg 83%
    20:00 +19°C° 0.2 mm 0 m/s 647 mmHg 82%
    21:00 +19°C° 0.2 mm 0 m/s 647 mmHg 82%
    22:00 +19°C° 0.2 mm 0 m/s 647 mmHg 82%
    23:00 +19°C° 0.2 mm 0 m/s 647 mmHg 81%

    25 Martie, Luni

    Timp Temperatura Precipitaţii Vânt Presiune Umiditate
    00:00 +18°C° 0.2 mm 0 m/s 646 mmHg 81%
    01:00 +18°C° 0.2 mm 0 m/s 646 mmHg 81%
    02:00 +18°C° 0.4 mm 0 m/s 646 mmHg 81%
    03:00 +18°C° 0.4 mm 0 m/s 646 mmHg 81%
    04:00 +18°C° 0.4 mm 0 m/s 646 mmHg 81%
    05:00 +18°C° 0.6 mm 0 m/s 646 mmHg 80%
    06:00 +18°C° 0.6 mm 0 m/s 647 mmHg 79%
    07:00 +19°C° 0.6 mm 0 m/s 647 mmHg 78%
    08:00 +20°C° 0.4 mm 0 m/s 648 mmHg 75%
    09:00 +21°C° 0.4 mm 0 m/s 648 mmHg 71%
    10:00 +22°C° 0.4 mm 0 m/s 649 mmHg 68%
    11:00 +23°C° 0.3 mm 0 m/s 648 mmHg 65%
    12:00 +26°C° 0.3 mm 1 m/s 648 mmHg 62%
    13:00 +27°C° 0.3 mm 1 m/s 647 mmHg 59%
    14:00 +26°C° 0.4 mm 1 m/s 647 mmHg 62%
    15:00 +26°C° 0.4 mm 1 m/s 646 mmHg 64%
    16:00 +25°C° 0.4 mm 1 m/s 645 mmHg 66%
    17:00 +22°C° 0.4 mm 0 m/s 645 mmHg 71%
    18:00 +20°C° 0.4 mm 0 m/s 645 mmHg 76%
    19:00 +19°C° 0.4 mm 0 m/s 645 mmHg 82%
    20:00 +19°C° 0.1 mm 0 m/s 646 mmHg 81%
    21:00 +21°C° 0.1 mm 1 m/s 646 mmHg 80%
    22:00 +20°C° 0.1 mm 1 m/s 646 mmHg 80%
    23:00 +20°C° 0 mm 1 m/s 646 mmHg 79%

    26 Martie, Marţi

    Timp Temperatura Precipitaţii Vânt Presiune Umiditate
    00:00 +20°C° 0 mm 1 m/s 646 mmHg 78%
    01:00 +20°C° 0 mm 1 m/s 645 mmHg 77%
    02:00 +20°C° 0.1 mm 1 m/s 645 mmHg 77%
    03:00 +18°C° 0.1 mm 0 m/s 645 mmHg 78%
    04:00 +17°C° 0.1 mm 0 m/s 645 mmHg 78%
    05:00 +18°C° 0.2 mm 0 m/s 646 mmHg 76%
    06:00 +19°C° 0.2 mm 0 m/s 647 mmHg 75%
    07:00 +19°C° 0.2 mm 0 m/s 648 mmHg 73%
    08:00 +21°C° 0.2 mm 0 m/s 648 mmHg 69%
    09:00 +24°C° 0.2 mm 1 m/s 649 mmHg 65%
    10:00 +26°C° 0.2 mm 1 m/s 649 mmHg 61%
    11:00 +26°C° 0.4 mm 1 m/s 648 mmHg 62%
    12:00 +26°C° 0.4 mm 1 m/s 648 mmHg 62%
    13:00 +25°C° 0.4 mm 1 m/s 647 mmHg 63%
    14:00 +23°C° 0.5 mm 0 m/s 646 mmHg 64%
    15:00 +23°C° 0.5 mm 0 m/s 646 mmHg 65%
    16:00 +23°C° 0.5 mm 0 m/s 646 mmHg 66%
    17:00 +22°C° 0.4 mm 0 m/s 646 mmHg 70%
    18:00 +21°C° 0.4 mm 0 m/s 646 mmHg 75%
    19:00 +19°C° 0.4 mm 0 m/s 646 mmHg 80%
    20:00 +19°C° 0.4 mm 0 m/s 646 mmHg 80%
    21:00 +19°C° 0.4 mm 0 m/s 646 mmHg 80%
    22:00 +21°C° 0.4 mm 1 m/s 647 mmHg 80%
    23:00 +19°C° 0.4 mm 0 m/s 646 mmHg 80%
    Arată mai mult